Terminal Aerodrome Forecast
Issued by NWS

Home | Current Version | Previous Version | Graphics & Text | Print | Product List | Glossary On
Versions: 1 2 3 4 5 6 7 8 9 10 11 12 13 14 15 16 17
000
FTUS43 KIWX 251720
TAFSBN
TAF
KSBN 251720Z 2518/2618 20012KT P6SM SCT050
     FM252300 20008KT P6SM VCTS BKN050CB
     FM260600 17005KT P6SM SCT020 BKN100
      TEMPO 2610/2614 5SM BR BKN020
     FM261400 21013KT P6SM SCT040=

USA.gov is the U.S. government's official web portal to all federal, state and local government web resources and services.